Location: Avon School (historical)
(37.7514°N, 90.2201°W)
Time: 03:30:36
(UTC+00:00)

Vanguard 2 Rocket - Pass Details

Date: 18 November 2024
Orbit: 554 x 3296 km, 32.9° (Epoch: 03 December)

Event Time Altitude Azimuth Distance (km) Brightness Sun altitude
Exits shadow 10:26:41 - 210° (SSW) 3,946 9.9 -27.2°
Reaches altitude 10° 10:27:34 10° 207° (SSW) 3,749 9.8 -27.0°
Maximum altitude 10:36:59 39° 143° (SE) 3,004 9.8 -25.1°
Drops below altitude 10° 10:51:46 10° 83° (E) 5,846 12.0 -22.3°
Sets 10:57:19 0° 77° (ENE) 7,109 12.7 -21.2°
